World > North America > United States > Texas

Flatwood, Texas Regional Weather

Lat: 32.53N, Lon: 95.63W
Wx Zone: TXZ122Web Search
Flatwood Weather Warning NWS WEATHER ALERT FOR THE FLATWOOD, TX AREA - Issued: 431 AM CDT Mon Apr 12 2021 Flatwood Weather Warning  

If you are on your PC, you can easily pass this page to your phone by scanning the QR Code near the bottom with your camera.

Feedback


°F Click to change Flatwood hourly weather to Imperial units.Click to change Flatwood hourly weather to Metric units. °C
Flatwood Weather Map
UTC Time: 4/12/2021, 13:18
Your Time:

Flatwood, TX Regional Weather

Expires:202104121400;;436487
ASUS44 KFWD 121315
RWRTX 
NORTH TEXAS HOURLY WEATHER ROUNDUP
NATIONAL WEATHER SERVICE FORT WORTH TX
800 AM CDT MON APR 12 2021

NOTE: "FAIR" INDICATES FEW OR NO CLOUDS BELOW 12,000 FEET WITH NO
SIGNIFICANT WEATHER AND/OR OBSTRUCTIONS TO VISIBILITY.


TXZ095>097-106>112-122>126-135>138-148>153-164>167-121400-
EAST TEXAS
  
CITY           SKY/WX    TMP DP  RH WIND       PRES   REMARKS
PARIS          FAIR      57  48  72 E5        29.83R                  
SULPHUR SPRNGS FAIR      57  49  74 CALM      29.84R                  
MOUNT PLEASANT FAIR      53  50  89 CALM      29.83R                  
GILMER         FAIR      59  50  71 CALM      29.83R                  
MINEOLA        FAIR      55  50  82 CALM      29.83R                  
TYLER          FAIR      60  49  66 SE6       29.82R                  
LONGVIEW       FAIR      57  50  77 VRB3      29.82R                  
MARSHALL       FAIR      53  49  89 CALM      29.86R                  
ATHENS         FAIR      55  50  82 CALM      29.81R                  
PALESTINE      FAIR      61  52  72 SE5       29.82R                  
JACKSONVILLE   FAIR      62  53  73 CALM      29.85R                  
HENDERSON      FAIR      55  52  90 CALM      29.84R                  
CENTER         FAIR      52  50  93 CALM      29.85R                  
NACOGDOCHES    FAIR      51  49  92 CALM      29.84R                  
LUFKIN         FAIR      57  54  89 SE5       29.82R                  
$$

SUPPLEMENTAL OBSERVATIONS (NWS FORT WORTH AREA)
  
CITY           SKY/WX    TMP DP  RH WIND       PRES   REMARKS
CADDO GRASSLND   N/A     55  46  71 S1          N/A                   
LBJ GRASSLAND    N/A     61  50  67 N2          N/A                   
GRANBURY         N/A     61  54  77 SE9         N/A                   
MCGREGOR         N/A    N/A N/A N/A S8          N/A                   
TEMPLE           N/A     61  59  94 S6          N/A                   
$$

SUPPLEMENTAL OBSERVATIONS (NWS NORMAN AREA)
  
CITY           SKY/WX    TMP DP  RH WIND       PRES   REMARKS
GOODLETT         N/A     51  30  43 N28       29.87R                  
ODELL            N/A     53  32  44 N25       29.87R                  
CROWELL          N/A     53  35  50 NE17      29.89R                  
KNOX CITY        N/A     55  37  51 N13       29.86R                  
SEYMOUR          N/A     55  39  55 N20       29.84R                  
MILLERS CREEK    N/A     55  37  50 N17G26      N/A                   
$$

SUPPLEMENTAL OBSERVATIONS (NWS SAN ANGELO AREA)
  
CITY           SKY/WX    TMP DP  RH WIND       PRES   REMARKS
WEINERT          N/A     54  38  54 N17       29.84R                  
HASKELL          N/A     54  38  55 N17       29.83R                  
THROCKMORTON     N/A     54  44  67 N9        29.81R                  
STAMFORD         N/A     56  43  61 N14       29.83R                  
CLYDE            N/A     62  43  51 N13       29.81R                  
IVIE RESERVOIR   N/A     64  54  68 E8          N/A                   
COLORADO BEND    N/A     63  57  82 S8          N/A                   
$$

SUPPLEMENTAL OBSERVATIONS (NWS SHREVEPORT AREA)
  
CITY           SKY/WX    TMP DP  RH WIND       PRES   REMARKS
TEXARKANA        N/A     52  50  93 CALM        N/A                   
CADDO LAKE       N/A     50  48  93 CALM        N/A                   
LUFKIN           N/A     54  50  87 MISG        N/A                   
N SABINE NF      N/A     54  50  87 MISG        N/A                   
$$

SUPPLEMENTAL OBSERVATIONS ARE A COLLECTION OF AUTOMATED INSTRUMENTS
THAT ARE MAINTAINED BY A VARIETY OF FEDERAL AND STATE AGENCIES. 
CERTAIN ELEMENTS...SUCH AS HUMIDITY VALUES AND SUSTAINED WIND 
SPEEDS...MAY BE APPROXIMATED.

  

SKY/WX - Weather  TMP - Temperature  DP - Dew Point  RH - Relative Humidity
WIND - Wind Direction/Speed PRES - Barometric Pressure VSB - Visibility
WCI - Wind Chill Index E13G22 Wind - East Wind 13 mph/Gusts of 22 mph